106P/Schuster (2007)

Japanese version
Home page
Total 6,336 html files since Dec. 4, 1995
Updated on April 20, 2007

---------------------------------------------------------------------

* Profile

* Orbital Elements

The following orbital elements are taken from MPC 51822:

Epoch 2007 Apr. 10.0 TT = JDT 2454200.5
T 2007 Apr. 2.2218 TT                                   MPC
q   1.556134             (2000.0)            P               Q
n   0.1348563      Peri.  355.8289      +0.6856713      -0.6776674
a   3.766071       Node    50.6122      +0.6773994      +0.4604193
e   0.586802       Incl.   20.1113      +0.2664299      +0.5733942
P   7.31
From 194 observations 1977-2000, mean residual 0".7.  Nongravitational
     parameters A1 = +0.12, A2 = +0.0070.

* Finding Charts

* Magnitudes Graph

        m1 = 9 + 5 log d + 25 log r(t + 15)

---------------------------------------------------------------------

The orbital elements are published at the MPC Ephemerides and Orbital Elements.
The charts are made with StellaNavigator Ver.2.0 for Windows (AstroArts / ASCII).
The magnitudes graphs are made with Comet for Windows.

---------------------------------------------------------------------

Copyright(C) 1995-2008 Seiichi Yoshida (comet@aerith.net). All rights reserved.